Flag for Canada Weather past 2 weeks in St. Albert, Alberta, Canada

Now
39 °F

Chilly.


Feels Like: 33 °F
Forecast: 31 / 40 °F
Wind: 9 mph from Northeast

Location: Edmonton Municipal

Current Time: Apr 25, 2015 at 2:10:41 PM

Latest Report: Apr 25, 2015 at 1:00 PM


Visibility: N/A

Pressure: 30.07 "Hg

Humidity: 37%

Dew point: 15 °F

Location of St. AlbertLocation

Historic Weather in St. Albert — Graph

°F

St. Albert temperature yesterday

Maximum temperature yesterday: 43 °F (at 2:00 PM)
Minimum temperature yesterday: 33 °F (at 6:00 AM)
Average temperature yesterday: 39 °F

Past Weeks' High & Low Weather Summary

 TemperatureHumidityPressure
High72 °F (Apr 22, 3:00 PM)100% (Apr 24, 6:00 AM)30.34 "Hg (Apr 24, 6:00 AM)
Low29 °F (Apr 19, 7:00 AM)13% (Apr 10, 4:00 PM)29.29 "Hg (Apr 11, 12:00 PM)
Average46 °F43%29.89 "Hg
* Reported Apr 10 1:00 PM — Apr 25 1:00 PM, St. Albert, Weather by CustomWeather, © 2015

Note: Actual official high and low records may vary slightly from our data, if they occured in-between our weather recording intervals... More about our weather records

Advertising

St. Albert weather history for previous 24 hours

 ConditionsComfort  
Time TempWeatherWind HumidityBarometerVisibility
1:00 PM
Sat, Apr 25
39 °FChilly.9 mph37%30.07 "HgN/A
12:00 PM36 °FChilly.12 mph45%30.06 "HgN/A
11:00 AM38 °FChilly.13 mph47%30.06 "HgN/A
10:00 AM33 °FChilly.12 mph62%30.05 "HgN/A
9:00 AM33 °FChilly.10 mph62%30.03 "HgN/A
8:00 AM33 °FChilly.12 mph63%30.02 "HgN/A
7:00 AM33 °FChilly.12 mph66%30.00 "HgN/A
6:00 AM34 °FChilly.7 mph72%29.98 "HgN/A
5:00 AM34 °FChilly.12 mph68%29.97 "HgN/A
4:00 AM35 °FChilly.9 mph65%29.94 "HgN/A
3:00 AM36 °FChilly.10 mph63%29.93 "HgN/A
2:00 AM36 °FChilly.10 mph64%29.92 "HgN/A
1:00 AM37 °FChilly.13 mph66%29.92 "HgN/A
12:00 AM38 °FChilly.9 mph67%29.90 "HgN/A
11:00 PM
Fri, Apr 24
38 °FChilly.9 mph66%29.89 "HgN/A
10:00 PM39 °FChilly.12 mph65%29.89 "HgN/A
9:00 PM39 °FChilly.13 mph71%29.87 "HgN/A
8:00 PM39 °FChilly.13 mph72%29.85 "HgN/A
7:00 PM39 °FChilly.14 mph78%29.85 "HgN/A
5:00 PM41 °FQuite cool.14 mph72%29.82 "HgN/A
4:00 PM43 °FQuite cool.10 mph65%29.80 "HgN/A
3:00 PM42 °FQuite cool.12 mph72%29.80 "HgN/A
2:00 PM43 °FQuite cool.12 mph71%29.80 "HgN/A
Weather by CustomWeather, © 2015

See weather overviewHow to use our weather pages